Location: Unspecified
(0.0000°N, 0.0000°E)
Time: 06:26:15
(UTC+00:00)

ISS - Visible Passes

Search period start: 22 July 2018 00:00
Search period end: 01 August 2018 00:00
Orbit: 402 x 408 km, 51.6° (Epoch: 22 July)

Date Brightness Start Highest point End Pass type
(mag) Time Alt. Az. Time Alt. Az. Time Alt. Az.
22 Jul -1.6 05:05:15 10° N 05:08:10 29° NE 05:11:05 10° ESE visible
23 Jul -0.4 04:14:49 10° NNE 04:16:05 12° NE 04:17:22 10° ENE visible
24 Jul -3.9 04:58:12 19° NW 05:00:18 58° SW 05:03:33 10° SSE visible
